{"data":{"norad_id":62225,"intl_designator":"2024-231H","name":"STARLINK-11471 [DTC]","alt_names":[],"object_type":"PAYLOAD","status":"ACTIVE","operator":null,"country":"US","launch_date":"2024-12-05","launch_site_code":"AFWTR","launch_vehicle":null,"mission":null,"orbit_class":"UNKNOWN","rcs_meters":null,"size_class":null,"mass_kg":null,"dimensions":null,"purposes":["comms"],"wikipedia_slug":null,"has_3d_model":false,"image_url":null,"decayed_at":null,"tle_current":{"epoch":"2026-05-25T02:06:35.404128Z","epoch_age_seconds":71019,"freshness":"FRESH","line1":"1 62225U 24231H   26145.08790977  .00115198  00000+0  94048-3 0  9996","line2":"2 62225  53.1565  84.4460 0000862  80.6874 279.4241 15.69763287 85410","mean_motion":15.69763287,"eccentricity":8.62e-5,"inclination_deg":53.1565,"raan_deg":84.446,"arg_perigee_deg":80.6874,"mean_anomaly_deg":279.4241,"bstar":0.00094048,"rev_number":8541,"period_min":91.733576133763,"perigee_km":358.99347702528,"apogee_km":360.15505844784,"semimajor_km":6737.7112677366,"source":"CELESTRAK","updated_at":"2026-05-25T13:38:19.614463Z"}}}